Location: Austin
(30.3000°N, 97.7500°W)
Time: 04:37:30
(UTC-05:00)

Cosmos 1624 Rocket - Pass Details

Date: 18 March 2023
Orbit: 755 x 784 km, 74.0° (Epoch: 01 April)

Event Time Altitude Azimuth Distance (km) Brightness Sun altitude
Rises 20:59:25 0° 199° (SSW) 3,220 7.4 -17.6°
Reaches altitude 10° 21:01:46 10° 201° (SSW) 2,301 6.6 -18.1°
Maximum altitude 21:07:00 74° 286° (WNW) 805 4.2 -19.2°
Drops below altitude 10° 21:12:17 10° 12° (NNE) 2,332 6.5 -20.4°
Sets 21:14:42 0° 14° (NNE) 3,266 7.2 -20.9°
